Location: ??????
(30.5519°N, 47.7720°E)
Time: 16:41:52
(UTC+00:00)

SJ 16-02 - Pass Details

Date: 24 January 2021
Orbit: 606 x 616 km, 75.0° (Epoch: 01 March)

Event Time Altitude Azimuth Distance (km) Brightness Sun altitude
Rises 14:50:32 0° 212° (SSW) 2,863 5.7 -7.4°
Reaches altitude 10° 14:52:55 10° 221° (SW) 1,960 5.0 -7.9°
Maximum altitude 14:56:57 36° 289° (WNW) 976 3.0 -8.7°
Drops below altitude 10° 15:01:00 10° 356° (N) 1,965 3.8 -9.5°
Sets 15:03:23 0° 5° (N) 2,871 4.6 -10.0°
